When you browse on this site, cookies collect data to enhance your experience and personalize the content and advertising you see.
Visit our Privacy Policy to learn more. By continuing to use the site, you agree to this use of cookies and data.
  • Em Portugal
  • Lista de países
  • Para 7 dias
  • Temperatura da água
  • Mapas de satélite
  • Mapa do tempo
  • Widgets de tempo
  • user-avatar
    Iniciar Sessão

    Previsão horária em Sharan

    Hoje, 23 Maio, Quinta-feira

    Tempo Temperatura Precipitação Vento Pressão Humidade
    00:00 +17°C° 0.2 mm 2 m/s 587 mmHg 56%
    01:00 +16°C° 0.2 mm 2 m/s 586 mmHg 58%
    02:00 +16°C° 0.2 mm 1 m/s 586 mmHg 60%
    03:00 +15°C° 0.2 mm 1 m/s 586 mmHg 62%
    04:00 +15°C° 0.2 mm 1 m/s 585 mmHg 64%
    05:00 +14°C° 0.2 mm 1 m/s 585 mmHg 66%
    06:00 +15°C° 0 mm 1 m/s 585 mmHg 63%
    07:00 +15°C° 0 mm 1 m/s 586 mmHg 61%
    08:00 +15°C° 0 mm 1 m/s 586 mmHg 58%
    09:00 +17°C° 0 mm 2 m/s 586 mmHg 52%
    10:00 +18°C° 0 mm 2 m/s 587 mmHg 46%
    11:00 +20°C° 0 mm 3 m/s 587 mmHg 40%
    12:00 +21°C° 0 mm 5 m/s 588 mmHg 34%
    13:00 +23°C° 0 mm 7 m/s 588 mmHg 29%
    14:00 +24°C° 0 mm 8 m/s 589 mmHg 23%
    15:00 +24°C° 0 mm 10 m/s 588 mmHg 23%
    16:00 +24°C° 0 mm 11 m/s 588 mmHg 22%
    17:00 +24°C° 0 mm 12 m/s 588 mmHg 21%
    18:00 +22°C° 0 mm 12 m/s 587 mmHg 22%
    19:00 +21°C° 0 mm 12 m/s 587 mmHg 23%
    20:00 +19°C° 0 mm 11 m/s 587 mmHg 24%
    21:00 +18°C° 0 mm 11 m/s 587 mmHg 26%
    22:00 +18°C° 0 mm 10 m/s 587 mmHg 28%
    23:00 +17°C° 0 mm 9 m/s 587 mmHg 30%

    Amanhã, 24 Maio, Sexta-feira

    Tempo Temperatura Precipitação Vento Pressão Humidade
    00:00 +16°C° 0 mm 8 m/s 587 mmHg 32%
    01:00 +16°C° 0 mm 6 m/s 587 mmHg 34%
    02:00 +15°C° 0 mm 5 m/s 586 mmHg 36%
    03:00 +15°C° 0 mm 5 m/s 586 mmHg 39%
    04:00 +14°C° 0 mm 4 m/s 586 mmHg 41%
    05:00 +13°C° 0 mm 4 m/s 585 mmHg 43%
    06:00 +14°C° 0 mm 5 m/s 586 mmHg 41%
    07:00 +15°C° 0 mm 5 m/s 586 mmHg 39%
    08:00 +15°C° 0 mm 6 m/s 587 mmHg 37%
    09:00 +17°C° 0 mm 6 m/s 587 mmHg 34%
    10:00 +19°C° 0 mm 6 m/s 588 mmHg 31%
    11:00 +20°C° 0 mm 6 m/s 588 mmHg 29%
    12:00 +21°C° 0 mm 6 m/s 588 mmHg 27%
    13:00 +21°C° 0 mm 6 m/s 589 mmHg 26%
    14:00 +22°C° 0 mm 6 m/s 589 mmHg 24%
    15:00 +22°C° 0 mm 6 m/s 588 mmHg 25%
    16:00 +22°C° 0 mm 6 m/s 588 mmHg 25%
    17:00 +22°C° 0 mm 6 m/s 588 mmHg 25%
    18:00 +22°C° 0 mm 5 m/s 588 mmHg 26%
    19:00 +21°C° 0 mm 4 m/s 588 mmHg 28%
    20:00 +21°C° 0 mm 3 m/s 588 mmHg 29%
    21:00 +20°C° 0 mm 3 m/s 588 mmHg 30%
    22:00 +19°C° 0 mm 3 m/s 588 mmHg 32%
    23:00 +18°C° 0 mm 3 m/s 588 mmHg 33%

    Depois de amanhã, 25 Maio, Sábado

    Tempo Temperatura Precipitação Vento Pressão Humidade
    00:00 +18°C° 0 mm 3 m/s 588 mmHg 35%
    01:00 +17°C° 0 mm 2 m/s 588 mmHg 37%
    02:00 +16°C° 0 mm 1 m/s 587 mmHg 39%
    03:00 +16°C° 0 mm 1 m/s 587 mmHg 40%
    04:00 +15°C° 0 mm 2 m/s 587 mmHg 42%
    05:00 +15°C° 0 mm 2 m/s 586 mmHg 43%
    06:00 +16°C° 0 mm 2 m/s 587 mmHg 41%
    07:00 +17°C° 0 mm 2 m/s 588 mmHg 38%
    08:00 +18°C° 0 mm 3 m/s 588 mmHg 36%
    09:00 +19°C° 0 mm 3 m/s 589 mmHg 32%
    10:00 +20°C° 0 mm 3 m/s 589 mmHg 28%
    11:00 +21°C° 0 mm 3 m/s 589 mmHg 24%
    12:00 +22°C° 0 mm 3 m/s 589 mmHg 21%
    13:00 +25°C° 0 mm 3 m/s 589 mmHg 19%
    14:00 +26°C° 0 mm 3 m/s 589 mmHg 17%
    15:00 +26°C° 0 mm 3 m/s 589 mmHg 16%
    16:00 +26°C° 0 mm 2 m/s 589 mmHg 15%
    17:00 +27°C° 0 mm 2 m/s 588 mmHg 14%
    18:00 +26°C° 0 mm 2 m/s 588 mmHg 16%
    19:00 +25°C° 0 mm 2 m/s 588 mmHg 17%
    20:00 +25°C° 0 mm 2 m/s 589 mmHg 19%
    21:00 +24°C° 0 mm 3 m/s 588 mmHg 20%
    22:00 +22°C° 0 mm 4 m/s 588 mmHg 22%
    23:00 +21°C° 0 mm 4 m/s 588 mmHg 23%

    26 Maio, Domingo

    Tempo Temperatura Precipitação Vento Pressão Humidade
    00:00 +20°C° 0 mm 5 m/s 587 mmHg 25%
    01:00 +19°C° 0 mm 5 m/s 587 mmHg 27%
    02:00 +17°C° 0 mm 5 m/s 586 mmHg 29%
    03:00 +16°C° 0 mm 5 m/s 586 mmHg 30%
    04:00 +15°C° 0 mm 4 m/s 586 mmHg 31%
    05:00 +14°C° 0 mm 4 m/s 586 mmHg 32%
    06:00 +15°C° 0 mm 4 m/s 586 mmHg 30%
    07:00 +15°C° 0 mm 5 m/s 587 mmHg 29%
    08:00 +16°C° 0 mm 5 m/s 587 mmHg 27%
    09:00 +17°C° 0 mm 5 m/s 588 mmHg 22%
    10:00 +19°C° 0 mm 5 m/s 588 mmHg 17%
    11:00 +21°C° 0 mm 5 m/s 589 mmHg 12%
    12:00 +22°C° 0 mm 5 m/s 589 mmHg 11%
    13:00 +23°C° 0 mm 5 m/s 589 mmHg 9%
    14:00 +25°C° 0 mm 5 m/s 589 mmHg 8%
    15:00 +25°C° 0 mm 5 m/s 589 mmHg 7%
    16:00 +25°C° 0 mm 5 m/s 589 mmHg 7%
    17:00 +25°C° 0 mm 4 m/s 589 mmHg 7%
    18:00 +25°C° 0 mm 4 m/s 589 mmHg 8%
    19:00 +24°C° 0 mm 3 m/s 589 mmHg 9%
    20:00 +22°C° 0 mm 3 m/s 588 mmHg 10%
    21:00 +21°C° 0 mm 3 m/s 588 mmHg 11%
    22:00 +20°C° 0 mm 3 m/s 588 mmHg 11%
    23:00 +19°C° 0 mm 3 m/s 588 mmHg 12%

    27 Maio, Segunda-feira

    Tempo Temperatura Precipitação Vento Pressão Humidade
    00:00 +18°C° 0 mm 3 m/s 588 mmHg 14%
    01:00 +17°C° 0 mm 3 m/s 587 mmHg 16%
    02:00 +17°C° 0 mm 4 m/s 587 mmHg 17%
    03:00 +16°C° 0 mm 3 m/s 587 mmHg 18%
    04:00 +14°C° 0 mm 3 m/s 586 mmHg 18%
    05:00 +14°C° 0 mm 3 m/s 586 mmHg 19%
    06:00 +16°C° 0 mm 3 m/s 587 mmHg 17%
    07:00 +17°C° 0 mm 3 m/s 588 mmHg 16%
    08:00 +18°C° 0 mm 3 m/s 589 mmHg 14%
    09:00 +20°C° 0 mm 3 m/s 589 mmHg 13%
    10:00 +21°C° 0 mm 2 m/s 589 mmHg 12%
    11:00 +24°C° 0 mm 2 m/s 590 mmHg 11%
    12:00 +24°C° 0 mm 2 m/s 590 mmHg 10%
    13:00 +25°C° 0 mm 2 m/s 590 mmHg 9%
    14:00 +26°C° 0 mm 3 m/s 590 mmHg 8%
    15:00 +27°C° 0 mm 2 m/s 589 mmHg 8%
    16:00 +27°C° 0 mm 2 m/s 589 mmHg 8%
    17:00 +27°C° 0 mm 2 m/s 589 mmHg 8%
    18:00 +26°C° 0 mm 2 m/s 589 mmHg 9%
    19:00 +26°C° 0 mm 2 m/s 589 mmHg 10%
    20:00 +25°C° 0 mm 2 m/s 589 mmHg 11%
    21:00 +24°C° 0 mm 2 m/s 589 mmHg 13%
    22:00 +22°C° 0 mm 3 m/s 589 mmHg 15%
    23:00 +21°C° 0 mm 3 m/s 589 mmHg 16%

    28 Maio, Terça-feira

    Tempo Temperatura Precipitação Vento Pressão Humidade
    00:00 +20°C° 0 mm 3 m/s 589 mmHg 17%
    01:00 +19°C° 0 mm 3 m/s 588 mmHg 19%
    02:00 +19°C° 0 mm 3 m/s 587 mmHg 20%
    03:00 +18°C° 0 mm 3 m/s 587 mmHg 20%
    04:00 +17°C° 0 mm 3 m/s 587 mmHg 19%
    05:00 +17°C° 0 mm 3 m/s 587 mmHg 19%
    06:00 +18°C° 0 mm 3 m/s 588 mmHg 16%
    07:00 +19°C° 0 mm 3 m/s 588 mmHg 14%
    08:00 +20°C° 0 mm 3 m/s 589 mmHg 11%
    09:00 +21°C° 0 mm 3 m/s 590 mmHg 10%
    10:00 +24°C° 0 mm 3 m/s 590 mmHg 9%
    11:00 +25°C° 0 mm 3 m/s 590 mmHg 8%
    12:00 +26°C° 0 mm 3 m/s 590 mmHg 8%
    13:00 +27°C° 0 mm 3 m/s 590 mmHg 7%
    14:00 +27°C° 0 mm 3 m/s 590 mmHg 6%
    15:00 +28°C° 0 mm 2 m/s 590 mmHg 6%
    16:00 +28°C° 0 mm 2 m/s 590 mmHg 6%
    17:00 +28°C° 0 mm 2 m/s 590 mmHg 6%
    18:00 +27°C° 0 mm 2 m/s 590 mmHg 7%
    19:00 +27°C° 0 mm 2 m/s 590 mmHg 8%
    20:00 +26°C° 0 mm 2 m/s 590 mmHg 9%
    21:00 +25°C° 0 mm 2 m/s 590 mmHg 10%
    22:00 +24°C° 0 mm 2 m/s 590 mmHg 11%
    23:00 +23°C° 0 mm 2 m/s 589 mmHg 12%
    Mostrar mais